TimeMST,TemperatureF,Dew PointF,Humidity,Sea Level PressureIn,VisibilityMPH,Wind Direction,Wind SpeedMPH,Gust SpeedMPH,PrecipitationIn,Events,Conditions,WindDirDegrees,DateUTC
12:53 AM,18.0,9.0,68,30.15,10.0,SW,17.3,-,N/A,,Clear,230,2012-12-29 07:53:00
1:53 AM,17.1,8.1,68,30.17,10.0,SW,18.4,-,N/A,,Clear,230,2012-12-29 08:53:00
2:53 AM,17.1,7.0,65,30.17,10.0,SW,16.1,-,N/A,,Clear,230,2012-12-29 09:53:00
3:53 AM,17.1,7.0,65,30.17,10.0,SW,16.1,-,N/A,,Clear,230,2012-12-29 10:53:00
4:53 AM,17.6,6.8,63,30.02,10.0,SW,13.8,-,N/A,,Clear,230,2012-12-29 11:53:00
5:53 AM,18.0,6.1,60,30.19,10.0,SW,15.0,-,N/A,,Clear,230,2012-12-29 12:53:00
6:53 AM,17.1,6.1,62,30.20,10.0,SW,12.7,-,N/A,,Clear,220,2012-12-29 13:53:00
7:53 AM,17.1,5.0,59,30.20,10.0,SW,18.4,-,N/A,,Clear,220,2012-12-29 14:53:00
8:53 AM,19.0,7.0,59,30.20,10.0,SW,18.4,-,N/A,,Clear,220,2012-12-29 15:53:00
9:53 AM,21.0,9.0,60,30.19,10.0,SW,19.6,-,N/A,,Clear,220,2012-12-29 16:53:00
10:53 AM,24.1,10.9,57,30.17,10.0,SW,15.0,-,N/A,,Clear,220,2012-12-29 17:53:00
11:53 AM,26.1,12.9,58,30.13,10.0,SSW,11.5,-,N/A,,Clear,210,2012-12-29 18:53:00
12:53 PM,26.1,14.0,60,30.10,10.0,South,12.7,-,N/A,,Clear,190,2012-12-29 19:53:00
1:53 PM,26.1,14.0,60,30.08,10.0,South,9.2,-,N/A,,Clear,180,2012-12-29 20:53:00
2:53 PM,25.0,14.0,63,30.08,10.0,South,8.1,-,N/A,,Clear,180,2012-12-29 21:53:00
3:53 PM,24.8,14.0,64,29.92,10.0,SE,5.8,-,N/A,,Clear,130,2012-12-29 22:53:00
4:53 PM,23.0,15.1,72,30.04,10.0,SSE,9.2,-,N/A,,Clear,160,2012-12-29 23:53:00
5:53 PM,21.9,14.0,72,30.03,10.0,SE,10.4,-,N/A,,Clear,140,2012-12-30 00:53:00
6:53 PM,21.9,14.0,72,30.02,10.0,South,6.9,-,N/A,,Clear,170,2012-12-30 01:53:00
7:53 PM,19.9,12.9,74,30.02,10.0,SSE,3.5,-,N/A,,Clear,160,2012-12-30 02:53:00
8:53 PM,16.0,10.0,77,30.01,10.0,SSE,5.8,-,N/A,,Clear,160,2012-12-30 03:53:00
9:53 PM,17.1,8.1,68,30.01,10.0,South,4.6,-,N/A,,Clear,180,2012-12-30 04:53:00
10:53 PM,15.8,6.8,68,29.86,10.0,South,3.5,-,N/A,,Clear,190,2012-12-30 05:53:00
11:53 PM,12.9,8.1,81,30.00,10.0,West,15.0,-,N/A,,Clear,270,2012-12-30 06:53:00